ZHONGXING-3A

Last updated on Thu Nov 21 2024 00:02:45 GMT+0000 (Coordinated Universal Time)

1 60179U 24122A 24324.95810854 -.00000312 00000+0 00000+0 0 9994 2 60179 0.0600 87.3102 0002271 182.1486 236.5441 1.00269960 1553
UTC large
Height (km)
Speed (km/s)
/
Latitude / Longitude
Inclination (degrees)
Orbital Period (minutes)
Azimuth
Elevation
Range (km)
Doppler Factor

Next 0 passes for location: London (51.5072 / 0.1276)

Sorry there are no passes over London.